Lexington Weather

Lexington, Massachusetts, USA

44°F
4/22/2024 9:16am 
  • Lexington Conditions: Clear
  • Temperature: 44.2°F / 6.8°CWarmer 3.2°F than last hour.
  • Dew Point: 26.8°FDecreased 1.4°Fsince last hour.
  • Relative Humidity: 50%Decreased 10.0% since last hour.
  • Wind: Calm, 10-min avg: Calm, gust: None
  • Barometer: 29.96 in Steady
  • Visibility: 10 miles
  • Rain Today: 0.00 in
  •   

Regional Weather Roundup
for Boston, MA

        
000
ASUS41 KBOX 201210
RWRBOX

REGIONAL WEATHER ROUNDUP
NATIONAL WEATHER SERVICE BOSTON/NORTON MA
800 AM EDT SAT APR 20 2024

NOTE:  "FAIR" INDICATES FEW OR NO CLOUDS BELOW 12,000 FEET WITH NO 
SIGNIFICANT WEATHER AND/OR OBSTRUCTIONS TO VISIBILITY.

MAZALL-201300-
EASTERN MASSACHUSETTS
  
CITY           SKY/WX    TMP DP  RH WIND       PRES   REMARKS
BOSTON         LGT RAIN  48  46  93 S8        29.95F FOG              
6HR MIN TEMP:  48; 6HR MAX TEMP:  49; 6HR PCP:  0.01;                

BEVERLY        RAIN      47  45  93 S5        29.93F FOG              
LAWRENCE       RAIN      47  46  97 SW7       29.96S FOG              
BEDFORD        RAIN      47  46  97 SW3       29.94F FOG              
NORWOOD        LGT RAIN  50  46  86 S5        29.96S FOG              
MARSHFIELD     CLOUDY    48  46  93 S5        29.95F                  
PLYMOUTH       FOG       48  46  93 S5        29.95S VSB 1            
TAUNTON        CLOUDY    49  45  86 S6        29.96F FOG              
NEW BEDFORD    FOG       47  47 100 S5        29.97F VSB 1/4          
$$

MAZALL-201300-
CAPE COD AND THE ISLANDS
  
CITY           SKY/WX    TMP DP  RH WIND       PRES   REMARKS
FALMOUTH       NOT AVBL                                               
HYANNIS        FOG       47  46  97 SW3       29.96S VSB 1            
CHATHAM        CLOUDY    46  46 100 CALM      29.97F FOG              
PROVINCETOWN   FOG       46  46 100 S6        29.98S VSB 1            
NANTUCKET      CLOUDY    47  46  97 SE12      29.95F FOG              
MARTHAS VNYRD  FOG       47  47 100 S5        29.98R VSB 1/4          
$$
 
MAZALL-201300-
CENTRAL AND WESTERN MASSACHUSETTS
  
CITY           SKY/WX    TMP DP  RH WIND       PRES   REMARKS
WORCESTER      LGT RAIN  46  44  93 W6        29.92F FOG              
6HR MIN TEMP:  44; 6HR MAX TEMP:  46; 6HR PCP:  0.20;                

FITCHBURG      LGT RAIN  48  45  89 CALM      29.95R FOG              
ORANGE         CLOUDY    47  45  93 S5        29.95S                  
SPRINGFIELD    CLOUDY    48  45  87 S7        29.93R                  
WESTFIELD      CLOUDY    48  46  93 S5        29.95S                  
NORTH ADAMS    CLOUDY    53  46  77 MISG      29.93S                  
PITTSFIELD     CLOUDY    47  45  93 SW7       29.92S                  
$$
 
RIZALL-201300-
RHODE ISLAND
  
CITY           SKY/WX    TMP DP  RH WIND       PRES   REMARKS
PROVIDENCE     FOG       47  47 100 S6        29.98R VSB 1            
6HR MIN TEMP:  45; 6HR MAX TEMP:  47; 6HR PCP: TRACE;                

NEWPORT        FOG       44  44 100 S6        29.96F VSB 1/4          
BLOCK ISLAND   LGT RAIN  44  44 100 S6        29.99F VSB 1/4          
SMITHFIELD     LGT RAIN  46  46 100 CALM      29.95F FOG              
WESTERLY       FOG       46  44  93 S5        29.97F VSB 1/4          
$$
 
CTZALL-201300-
CONNECTICUT
  
CITY           SKY/WX    TMP DP  RH WIND       PRES   REMARKS
BRADLEY INTL   DRIZZLE   49  46  90 S6        29.96S FOG              
6HR MIN TEMP:  48; 6HR MAX TEMP:  49; 6HR PCP:  0.20;                

HARTFORD       LGT RAIN  48  47  96 CALM      29.96S                  
PLAINVILLE     LGT RAIN  47  47 100 CALM      29.97R FOG              
BRIDGEPORT     LGT RAIN  49  47  93 SW6       29.97S FOG              
DANBURY        CLOUDY    49  46  90 SW3       29.97S                  
GROTON         FOG       47  47 100 S5        29.97S VSB 1/4          
NEW HAVEN      LGT RAIN  50  49  96 S3        29.97F FOG              
CHESTER        FOG       46  46 100 SW5       29.98R VSB<1/4          
MERIDEN        LGT RAIN  48  45  89 S3        29.97R                  
WILLIMANTIC    RAIN      46  46 100 CALM      29.96S FOG              
OXFORD         LGT RAIN  46  46 100 W3        29.97R FOG              
$$

MEZ002-015-021-024-NHZ003-005-008-011-012-014-VTZ005-008-201300-
NORTHERN NEW ENGLAND
  
CITY           SKY/WX    TMP DP  RH WIND       PRES   REMARKS
PORTLAND ME    LGT RAIN  45  45 100 SW5       29.93S                  
6HR MIN TEMP:  45; 6HR MAX TEMP:  47; 6HR PCP:  0.18;                

BANGOR ME      LGT RAIN  44  41  89 S9        29.92F                  
CONCORD NH     CLOUDY    46  45  96 S3        29.93R                  
MANCHESTER NH  LGT RAIN  48  45  89 S6        29.93S FOG              
NASHUA NH      LGT RAIN  47  50 100 CALM      29.95S                  
PORTSMOUTH NH  RAIN      47  45  93 SE3       29.92F FOG              
JAFFREY NH     CLOUDY    47  43  86 SW5       29.92S                  
KEENE NH       CLOUDY    47  45  93 SW6       29.94S                  
BURLINGTON VT  CLOUDY    48  27  44 NW8       29.92R                  
MT. WASHINGTON FOG       28  28 100 W43         N/A  VSB 0   WCI  10  
$$

NYZ052-076-201300-
EASTERN NEW YORK
  
CITY           SKY/WX    TMP DP  RH WIND       PRES   REMARKS
ALBANY         CLOUDY    51  46  83 CALM      29.96R                  
6HR MIN TEMP:  50; 6HR MAX TEMP:  52;                                

NEW YORK CITY  CLOUDY    50  46  86 SW6       29.97S                  
6HR MIN TEMP:  48; 6HR MAX TEMP:  50; 6HR PCP:  0.07;                

$$
 
ANZALL-201300-
MARINE OBSERVATIONS
  
STATION/POSITION TIME  TEMP    WIND        PRES    VSBY  WAVE
                       AIR SEA DIR/SP/G                  HT/PER
                 (UTC) (F)     (DEG/KT/KT) (MB)    (MI)  (FT/S)
BOSTON BUOY      1150   46     170/  8/ 10 1014.1F         2/11
BUZZARDS BAY     1100   44     160/  2/  3 1015.6R
NANTUCKET SOUND  1150   48 47  160/  8/ 10 1014.6F         1
MASS BAY-STELLWA 1004   46 45  190/ 12/ 14 1014.8F  1 7/8  2/ 6
ISLE OF SHOALS   1100   46     190/ 11/ 13 1013.2F
S OF BLOCK IS    1156      44                N/A           4/ 8
$$

......................KEY.........................
  SKY/WX - SKY CONDITION/PRESENT WEATHER
  TMP    - TEMPERATURE IN FAHRENHEIT
  DWPT   - DEWPOINT IN FAHRENHEIT
  RH     - RELATIVE HUMIDITY IN PERCENT
  WIND   - DIRECTION AND SPEED IN MPH
  PRES   - MEAN SEA LEVEL PRESSURE IN INCHES OF HG
  WCI    - WIND CHILL INDEX
  VSB    - VISIBILITY IN MILES
  HX     - HEAT INDEX
  TC     - TEMPERATURE IN CELSIUS
  VRB    - VARIABLE WIND DIRECTION
  N/A    - NOT AVAILABLE
  
      

Other recent Regional Weather Roundups

Mon Apr 22, 9:10am EDT

Mon Apr 22, 8:10am EDT

Mon Apr 22, 7:10am EDT

Mon Apr 22, 6:10am EDT

Mon Apr 22, 5:10am EDT

Mon Apr 22, 4:10am EDT

Mon Apr 22, 3:10am EDT

Mon Apr 22, 2:10am EDT

Mon Apr 22, 1:10am EDT

Mon Apr 22, 12:10am EDT

Sun Apr 21, 11:10pm EDT

Sun Apr 21, 10:10pm EDT

Sun Apr 21, 9:10pm EDT

Sun Apr 21, 8:10pm EDT

Sun Apr 21, 7:10pm EDT

Sun Apr 21, 6:10pm EDT

Sun Apr 21, 5:10pm EDT

Sun Apr 21, 4:10pm EDT

Sun Apr 21, 3:10pm EDT

Sun Apr 21, 2:10pm EDT

Sun Apr 21, 1:10pm EDT

Sun Apr 21, 12:10pm EDT

Sun Apr 21, 11:10am EDT

Sun Apr 21, 10:10am EDT

Sun Apr 21, 9:10am EDT

Sun Apr 21, 8:10am EDT

Sun Apr 21, 7:10am EDT

Sun Apr 21, 6:10am EDT

Sun Apr 21, 5:10am EDT

Sun Apr 21, 4:10am EDT

Sun Apr 21, 3:10am EDT

Sun Apr 21, 2:10am EDT

Sun Apr 21, 1:10am EDT

Sun Apr 21, 12:10am EDT

Sat Apr 20, 11:10pm EDT

Sat Apr 20, 10:10pm EDT

Sat Apr 20, 9:10pm EDT

Sat Apr 20, 8:10pm EDT

Sat Apr 20, 7:10pm EDT

Sat Apr 20, 6:10pm EDT

Sat Apr 20, 5:10pm EDT

Sat Apr 20, 4:10pm EDT

Sat Apr 20, 3:10pm EDT

Sat Apr 20, 2:10pm EDT

Sat Apr 20, 1:10pm EDT

Sat Apr 20, 12:10pm EDT

Sat Apr 20, 11:10am EDT

Sat Apr 20, 10:10am EDT

Sat Apr 20, 9:10am EDT

Sat Apr 20, 7:10am EDT

Sat Apr 20, 6:10am EDT

Sat Apr 20, 5:10am EDT

Sat Apr 20, 4:10am EDT

Sat Apr 20, 3:10am EDT

Sat Apr 20, 2:10am EDT

Sat Apr 20, 1:10am EDT

Sat Apr 20, 12:10am EDT

Fri Apr 19, 11:10pm EDT

Fri Apr 19, 10:10pm EDT

Fri Apr 19, 9:10pm EDT

Fri Apr 19, 8:10pm EDT

Fri Apr 19, 7:10pm EDT

Fri Apr 19, 6:10pm EDT

Fri Apr 19, 5:10pm EDT

Fri Apr 19, 4:10pm EDT

Fri Apr 19, 3:10pm EDT

Fri Apr 19, 2:10pm EDT

Fri Apr 19, 1:10pm EDT

Fri Apr 19, 12:10pm EDT

Fri Apr 19, 11:10am EDT

Fri Apr 19, 10:10am EDT

Fri Apr 19, 9:10am EDT

Fri Apr 19, 8:10am EDT

Fri Apr 19, 7:10am EDT

Fri Apr 19, 6:10am EDT

Fri Apr 19, 5:10am EDT

Fri Apr 19, 4:10am EDT

Fri Apr 19, 3:10am EDT

Fri Apr 19, 2:10am EDT

Fri Apr 19, 1:10am EDT

Fri Apr 19, 12:10am EDT

Thu Apr 18, 11:10pm EDT

Thu Apr 18, 10:10pm EDT

Thu Apr 18, 9:10pm EDT

Thu Apr 18, 8:10pm EDT

Thu Apr 18, 7:10pm EDT

Thu Apr 18, 6:10pm EDT

Thu Apr 18, 5:10pm EDT

Thu Apr 18, 4:10pm EDT

Thu Apr 18, 3:10pm EDT

Thu Apr 18, 2:10pm EDT

Thu Apr 18, 1:10pm EDT

Thu Apr 18, 12:10pm EDT

Thu Apr 18, 11:10am EDT

Thu Apr 18, 10:10am EDT

Thu Apr 18, 9:10am EDT

Thu Apr 18, 8:10am EDT

Thu Apr 18, 7:10am EDT

Thu Apr 18, 6:10am EDT

Thu Apr 18, 5:10am EDT

Thu Apr 18, 4:10am EDT

Thu Apr 18, 3:10am EDT

Thu Apr 18, 2:10am EDT

Thu Apr 18, 1:10am EDT

Thu Apr 18, 12:10am EDT

Wed Apr 17, 11:10pm EDT

Wed Apr 17, 10:10pm EDT

Wed Apr 17, 9:10pm EDT

Wed Apr 17, 8:10pm EDT

Wed Apr 17, 7:10pm EDT

Wed Apr 17, 6:10pm EDT

Wed Apr 17, 5:10pm EDT

Wed Apr 17, 4:10pm EDT

Wed Apr 17, 3:10pm EDT

Wed Apr 17, 2:10pm EDT

Wed Apr 17, 1:10pm EDT

Wed Apr 17, 12:10pm EDT

Wed Apr 17, 11:10am EDT

Wed Apr 17, 10:10am EDT

Wed Apr 17, 9:10am EDT

Wed Apr 17, 8:10am EDT

Wed Apr 17, 7:10am EDT

Wed Apr 17, 6:10am EDT

Wed Apr 17, 5:10am EDT

Wed Apr 17, 4:10am EDT

Wed Apr 17, 3:10am EDT

Wed Apr 17, 2:10am EDT

Wed Apr 17, 1:10am EDT

Wed Apr 17, 12:10am EDT

Tue Apr 16, 11:10pm EDT

Tue Apr 16, 10:10pm EDT

Tue Apr 16, 9:10pm EDT

Tue Apr 16, 8:10pm EDT

Tue Apr 16, 7:10pm EDT

Tue Apr 16, 6:10pm EDT

Tue Apr 16, 5:10pm EDT

Tue Apr 16, 4:10pm EDT

Tue Apr 16, 3:10pm EDT

Tue Apr 16, 2:10pm EDT

Tue Apr 16, 1:10pm EDT

Tue Apr 16, 12:10pm EDT

Tue Apr 16, 11:10am EDT

Tue Apr 16, 10:10am EDT

Tue Apr 16, 9:10am EDT

Tue Apr 16, 8:10am EDT

Tue Apr 16, 7:10am EDT

Tue Apr 16, 6:10am EDT

Tue Apr 16, 5:10am EDT

Tue Apr 16, 4:10am EDT

Tue Apr 16, 3:10am EDT

Tue Apr 16, 2:10am EDT

Tue Apr 16, 1:10am EDT

Tue Apr 16, 12:10am EDT

Mon Apr 15, 11:10pm EDT

Mon Apr 15, 10:10pm EDT

Mon Apr 15, 9:10pm EDT

Mon Apr 15, 8:10pm EDT

Mon Apr 15, 7:10pm EDT

Mon Apr 15, 6:10pm EDT

Mon Apr 15, 5:10pm EDT

Mon Apr 15, 4:10pm EDT

Mon Apr 15, 3:10pm EDT

Mon Apr 15, 2:10pm EDT

Mon Apr 15, 1:10pm EDT

Mon Apr 15, 12:10pm EDT

Mon Apr 15, 11:10am EDT

Mon Apr 15, 10:10am EDT